Location: Ariel
(45.9570°N, 122.5700°W)
Time: 22:07:28
(UTC-07:00)

Transit 4A - Pass Details

Date: 23 July 2019
Orbit: 863 x 981 km, 66.8° (Epoch: 20 August)

Event Time Altitude Azimuth Distance (km) Brightness Sun altitude
Rises 06:42:20 0° 311° (NW) 3,692 10.7 8.5°
Reaches altitude 10° 06:47:42 10° 348° (NNW) 2,736 10.5 9.4°
Maximum altitude 06:49:06 11° 1° (N) 2,680 10.6 9.7°
Drops below altitude 10° 06:50:31 10° 14° (NNE) 2,727 10.9 9.9°
Sets 06:55:49 0° 51° (NE) 3,649 12.5 10.8°
